Home   Weather   Meyrin   Past weeks

Flag for Switzerland Past Weather in Meyrin, Geneva, Switzerland — Yesterday and Last 2 Weeks

Now
54 °F

Clear.


Feels Like: 54 °F
Forecast: 55 / 84 °F
Wind: 1 mph from North

Location: Geneva Cointrin Airport

Current Time: Aug 21, 2017 at 3:11:25 am

Latest Report: Aug 21, 2017 at 2:20 am


Visibility: 10 mi

Pressure: 30.24 "Hg

Humidity: 77%

Dew Point: 46 °F

Location of MeyrinLocation

Past Weather in Meyrin — Graph

°F

Meyrin Temperature Yesterday

Maximum temperature yesterday: 73 °F (at 4:50 pm)
Minimum temperature yesterday: 52 °F (at 5:50 am)
Average temperature yesterday: 63 °F

High & Low Weather Summary for the Past Weeks

 TemperatureHumidityPressure
High90 °F (Aug 18, 2:50 pm)100% (Aug 8, 7:20 am)30.27 "Hg (Aug 8, 7:20 am)
Low50 °F (Aug 12, 2:50 am)28% (Aug 7, 4:50 pm)29.86 "Hg (Aug 8, 5:20 am)
Average67 °F69%30.11 "Hg
* Reported Aug 6 2:20 am — Aug 21 2:20 am, Meyrin. Weather by CustomWeather, © 2017

Note: Actual official high and low records may vary slightly from our data, if they occured in-between our weather recording intervals... More about our weather records

Advertising

Meyrin Weather History for the Previous 24 Hours

Scroll right to see more
 ConditionsComfort  
Time TempWeatherWind HumidityBarometerVisibility
2:20 am
Mon, Aug 21
54 °FClear.1 mph77%30.24 "Hg10 mi
1:50 am55 °FClear.1 mph72%30.24 "Hg10 mi
1:20 am54 °FClear.1 mph77%30.27 "Hg10 mi
12:50 am55 °FClear.2 mph72%30.27 "Hg10 mi
12:20 am57 °FClear.1 mph67%30.24 "Hg10 mi
11:50 pm
Sun, Aug 20
57 °FClear.1 mph67%30.24 "Hg10 mi
11:20 pm59 °FClear.1 mph63%30.24 "Hg10 mi
10:50 pm59 °FClear.1 mph63%30.24 "Hg10 mi
10:20 pm61 °FClear.2 mph59%30.24 "Hg10 mi
9:50 pm61 °FClear.2 mph59%30.24 "Hg10 mi
9:20 pm63 °FClear.2 mph56%30.24 "Hg10 mi
8:50 pm66 °FClear.3 mph49%30.24 "Hg10 mi
8:20 pm70 °FSunny.8 mph43%30.21 "Hg10 mi
7:50 pm72 °FPassing clouds.9 mph38%30.21 "HgN/A
7:20 pm72 °FPassing clouds.9 mph36%30.21 "HgN/A
6:50 pm72 °FPassing clouds.10 mph36%30.21 "HgN/A
6:20 pm73 °FPassing clouds.12 mph33%30.24 "HgN/A
5:50 pm73 °FPassing clouds.10 mph36%30.24 "HgN/A
5:20 pm73 °FPassing clouds.10 mph33%30.24 "HgN/A
4:50 pm73 °FScattered clouds.10 mph33%30.24 "HgN/A
4:20 pm72 °FScattered clouds.10 mph38%30.24 "HgN/A
3:50 pm72 °FScattered clouds.10 mph38%30.24 "HgN/A
2:50 pm72 °FScattered clouds.9 mph38%30.24 "HgN/A
2:20 pm70 °FScattered clouds.13 mph40%30.24 "HgN/A
1:50 pm70 °FScattered clouds.10 mph43%30.24 "HgN/A
1:20 pm70 °FPartly sunny.13 mph43%30.24 "HgN/A
12:50 pm68 °FPartly sunny.13 mph46%30.24 "HgN/A
12:20 pm68 °FPartly sunny.12 mph46%30.27 "HgN/A
11:50 am68 °FPartly sunny.12 mph46%30.27 "HgN/A
11:20 am66 °FPartly sunny.14 mph49%30.27 "HgN/A
10:50 am66 °FScattered clouds.14 mph46%30.24 "HgN/A
10:20 am66 °FScattered clouds.8 mph46%30.24 "HgN/A
9:50 am64 °FScattered clouds.7 mph49%30.24 "HgN/A
9:20 am64 °FScattered clouds.6 mph52%30.24 "HgN/A
8:50 am63 °FScattered clouds.3 mph59%30.24 "HgN/A
8:20 am59 °FScattered clouds.1 mph72%30.24 "HgN/A
7:50 am55 °FPartly sunny.2 mph77%30.24 "HgN/A
7:20 am52 °FScattered clouds.1 mph88%30.21 "HgN/A
6:50 am54 °FPartly sunny.2 mph82%30.21 "HgN/A
6:20 am54 °FPassing clouds.1 mph82%30.21 "HgN/A
5:50 am52 °FPassing clouds.1 mph88%30.21 "HgN/A
5:20 am54 °FPassing clouds.2 mph82%30.21 "HgN/A
4:50 am54 °FPassing clouds.1 mph82%30.21 "HgN/A
4:20 am55 °FPassing clouds.2 mph77%30.21 "HgN/A
3:50 am55 °FPassing clouds.1 mph77%30.21 "HgN/A
3:20 am57 °FPassing clouds.No wind67%30.21 "HgN/A
Weather by CustomWeather, © 2017

See weather overviewHow to use our weather pages